NOAA 17 DEB, 48725

Orbit data source: Space-Track

NOAA 17 DEB, 48725 is space debris in SSO originally from a launch on Mon, 24 Jun 2002 UTC launched from the Air Force Western Test Range (AFWTR). Debris objects in space refer to the collection of defunct objects orbiting the Earth. Examples of debris include non-operational satellites, rocket bodies, and fragments generated from explosions, collisions, or faulty payload assembly.

Loading next visibility...
Identifier
48725, 2002-032BJ
Orbit
SSO
Country
Flag of USUS
Related business
Manufacturer
Unknown
Mission
Spacecraft
Bus & Motor
Unknown
Mass
Unknown
Launch date (UTC)
2002-06-24 (23 years ago)
Launch vehicle
Unknown
Launch site
Air Force Western Test Range (AFWTR)
Object type
Payload
Rocket body
Debris
Shape & HBR
Unknown shape, 0.1 m
Radar Cross Section
Small (<0.1 m²)

Expand to show TLE details & history
Last TLE update: 2 days ago

TLE from 2 days ago
0 NOAA 17 DEB
1 48725U 02032BJ  25348.08499936  .00013602  00000-0  37162-2 0  9996
2 48725  98.7026 289.1415 0051678 171.6205 188.5861 14.46588988245985
Epoch: 2025-12-14T02:02Z
TLE epoch observation values (Epoch: 2025-12-14T02:02:23.944Z)
Latitude
-0.00005°
Longitude
175.53876°
Altitude
776.13 km
Speed
7.447 km/s
True Right ascension
19h 16m 33s
True Declination
0° 00' 00"
Sunlit
Object was in daylight at epoch
Visualization orbit readout
Latitude
Unknown
Longitude
Unknown
Altitude
Unknown
Speed
Unknown
Apparent Right ascension
Unknown
Apparent Declination
Unknown
Sunlit
N/A
Visualization observer readout
Local Sidereal Time
13:18:19
Azimuth
Unknown
Elevation
Unknown
Doppler factor
Unknown
Orbital elements
Apogee altitude
770.688 km
Perigee altitude
697.18 km
Semi-major axis
7,112.071 km
Eccentricity
0.00517
Inclination
98.7026°
RAAN
289.1415°
Arg. of periapsis
171.6205°
True anomaly
188.49825°
Mean anomaly
188.5861°
Eccentric anomaly
188.54212°
Mean motion
3.61867 °/min
Orbital period
99.48 mins
BSTAR
0.0037162
Loading maneuver chart data...
Computing Atmospheric mass density...
Loading historical data...
Loading historical data...
Loading historical data...
Loading historical data...
Loading historical data...
Loading historical data...
Loading historical data...

Documentation

Showing up to 5 results
|